Regional Weather Roundup
Issued by NWS

Home | Current Version | Previous Version | Text Only | Print | Product List | Glossary On
Versions: 1 2 3 4 5 6 7 8 9 10 11 12 13 14 15 16 17 18 19 20 21 22 23 24 25 26 27 28 29 30 31 32 33 34 35 36 37 38 39 40 41 42 43 44 45 46 47 48 49 50
000
ASUS43 KDTX 222301
RWRMI
MICHIGAN HOURLY REGIONAL WEATHER ROUNDUP
NATIONAL WEATHER SERVICE DETROIT/PONTIAC MI
600 PM EST SAT NOV 22 2014

NOTE: "FAIR" INDICATES FEW OR NO CLOUDS BELOW 12,000 FEET WITH NO
SIGNIFICANT WEATHER AND/OR OBSTRUCTION TO VISIBILITY.

MIZ047>049-052>055-059>063-066>070-074>076-081>083-230000-
SOUTHEAST LOWER MICHIGAN

CITY           SKY/WX    TMP DP  RH WIND       PRES   REMARKS
ADRIAN         CLOUDY    45  42  89 SW10      29.96S
ALMA           CLOUDY    38  38 100 S8        29.87F FOG     WCI  32
ANN ARBOR      CLOUDY    44  41  89 SW8       29.95S
BAD AXE        CLOUDY    40  40  98 SW10      29.89R FOG     WCI  34
DETROIT CITY   CLOUDY    49  41  74 SW13      29.96S
DETROIT        DRIZZLE   46  42  86 SW10      29.97S
FLINT          FOG       43  40  89 SW8       29.91S VSB 1
GROSSE ILE     CLOUDY    41  37  87 S7        29.95F
HILLSDALE      CLOUDY    47  46  94 SW8       29.93F
HOWELL         RAIN      41  41  99 S7        29.91S

CITY           SKY/WX    TMP DP  RH WIND       PRES   REMARKS
JACKSON        CLOUDY    48  44  86 SW15G21   29.92S
LAMBERTVILLE   CLOUDY    50  43  76 SW9G17    29.97S
LANSING        CLOUDY    44  42  93 SW14      29.91S FOG
LAPEER         CLOUDY    41  40  96 SW9       29.91S FOG
MASON          CLOUDY    45  43  95 SW9       29.91S FOG
MONROE         CLOUDY    48  43  81 SW8       29.95R
MT. CLEMENS    CLOUDY    46  45  97 SW14      29.93S
PONTIAC        CLOUDY    42  40  92 S8        29.92S FOG
PORT HOPE        N/A     41  37  86 S8        29.86R
PORT HURON     CLOUDY    41  39  93 S6        29.94S
TRI CITIES     LGT RAIN  42  40  92 SW10G17   29.88F FOG
TROY           CLOUDY    45  41  87 S9G16     29.95S
SAGINAW HB     CLOUDY    41  41 100 SW10      29.88S FOG
$$
MIZ043>046-050>051-056>058-064>065-071>073-077>080-230000-
SOUTHWEST LOWER MICHIGAN

CITY           SKY/WX    TMP DP  RH WIND       PRES   REMARKS
BATTLE CREEK   CLOUDY    45  41  86 SW15      29.91F FOG
BENTON HARBOR  CLOUDY    46  44  93 S9        29.90R FOG
BIG RAPIDS     CLOUDY    38  38 100 S6        29.82S FOG     WCI  34
COLDWATER      CLOUDY    48  45  91 SW10      29.93S
FREMONT        CLOUDY    41  40  98 SW8       29.83F FOG
HOLLAND        CLOUDY    48  44  86 SW15G24   29.87F
GRAND RAPIDS   CLOUDY    41  40  96 S12       29.87F FOG
IONIA          CLOUDY    40  40 100 SW8       29.87F FOG     WCI  35
KALAMAZOO      LGT RAIN  43  40  89 S12       29.91F FOG
LUDINGTON      CLOUDY    42  42  97 SW15      29.81F FOG
MARSHALL       CLOUDY    44  42  93 SW9       29.91F
MOUNT PLEASANT CLOUDY    39  38  97 S7        29.85S FOG     WCI  34
MUSKEGON       CLOUDY    46  42  86 S18       29.85F
SOUTH HAVEN    CLOUDY    48  46  91 S8        29.89S
$$
MIZ016>042-230000-
NORTHERN LOWER MICHIGAN

CITY           SKY/WX    TMP DP  RH WIND       PRES   REMARKS
ALPENA         CLOUDY    40  37  89 SW6       29.80R
BEAVER ISLAND  CLOUDY    40  37  92 SW10      29.75S WCI  33
BELLAIRE       CLOUDY    39  38  95 S3        29.79R FOG
CADILLAC       FOG       37  37 100 SW13      29.78F VSB 1/2 WCI  28
CHARLEVOIX     CLOUDY    39  39  99 SW7       29.79F FOG     WCI  34
FRANKFORT      CLOUDY    42  41  98 SW12G18   29.78F FOG
GAYLORD        FOG       36  36 100 SW14      29.76S VSB 1/4 WCI  27
GRAYLING       FOG       38  38 100 SW7       29.79S VSB 3/4 WCI  32
HARBOR SPRINGS FOG       38  38  99 SW8       29.76S VSB 1   WCI  32
HOUGHTON LAKE  FOG       37  37 100 SW9       29.81S VSB 1/2 WCI  30
MANISTEE       CLOUDY    43  39  87 SW9       29.80F
OSCODA         CLOUDY    37  37 100 SW9       29.83S FOG     WCI  31
PELLSTON       CLOUDY    40  39  97 SW8       29.76R FOG     WCI  34
ROGERS CITY    CLOUDY    39  38  94 S3        29.78F
TRAVERSE CITY  FOG       40  38  93 VRB6      29.78R VSB 1/4
$$
MIZ007>008-015-230000-
EASTERN UPPER MICHIGAN

CITY           SKY/WX    TMP DP  RH WIND       PRES   REMARKS
KINROSS        CLOUDY    37  36  93 SW6       29.74S WCI  33
MACKINAC ISLAN CLOUDY    38  38  99 W10G17    29.74S FOG     WCI  32
NEWBERRY       CLOUDY    34  32  93 SW7       29.74R WCI  27
S. S. MARIE    CLOUDY    36  31  82 W3        29.74S
MUNISING         N/A     34  28  79 SW6       29.71S WCI  29
$$
MIZ004>006-011>014-085-230000-
CENTRAL UPPER MICHIGAN

CITY           SKY/WX    TMP DP  RH WIND       PRES   REMARKS
MANISTIQUE     CLOUDY    35  32  88 W3        29.74R
ESCANABA       CLOUDY    37  30  75 S5        29.73R WCI  34
MENOMINEE      CLOUDY    37  34  87 W5        29.75S WCI  34
SAWYER-GWINN   CLOUDY    34  30  86 CALM      29.70R
$$
MIZ001>003-009>011-084-230000-
WESTERN UPPER MICHIGAN

CITY           SKY/WX    TMP DP  RH WIND       PRES   REMARKS
IRON MOUNTAIN  CLOUDY    35  30  82 CALM      29.70F
HOUGHTON       CLOUDY    36  30  79 W5        29.67S WCI  32
COPPER HARBOR    N/A     37  32  82 W5        29.68R WCI  33
IRONWOOD       CLOUDY    36  32  87 S6        29.65R WCI  31
$$

ABBREVIATIONS USED IN REMARKS
   TC - TEMPERATURE IN CELSIUS
  WCI - WIND CHILL INDEX
   HX - HEAT INDEX
  VSB - VISIBILITY



USA.gov is the U.S. government's official web portal to all federal, state and local government web resources and services.